Year,Month,Day,Hour,Minute,Value (Times are PST for barometer in hPa)
2020,08,20,00,00,999.39
2020,08,20,00,01,999.36
2020,08,20,00,02,999.32
2020,08,20,00,03,999.39
2020,08,20,00,04,999.36
2020,08,20,00,05,999.39
2020,08,20,00,06,999.39
2020,08,20,00,07,999.43
2020,08,20,00,08,999.46
2020,08,20,00,09,999.39
2020,08,20,00,10,999.39
2020,08,20,00,11,999.39
2020,08,20,00,12,999.39
2020,08,20,00,13,999.43
2020,08,20,00,14,999.43
2020,08,20,00,15,999.39
2020,08,20,00,16,999.43
2020,08,20,00,17,999.46
2020,08,20,00,18,999.46
2020,08,20,00,19,999.56
2020,08,20,00,20,999.53
2020,08,20,00,21,999.56
2020,08,20,00,22,999.59
2020,08,20,00,23,999.53
2020,08,20,00,24,999.56
2020,08,20,00,25,999.56
2020,08,20,00,26,999.59
2020,08,20,00,27,999.59
2020,08,20,00,28,999.66
2020,08,20,00,29,999.66
2020,08,20,00,30,999.63
2020,08,20,00,31,999.59
2020,08,20,00,32,999.63
2020,08,20,00,33,999.59
2020,08,20,00,34,999.56
2020,08,20,00,35,999.49
2020,08,20,00,36,999.49
2020,08,20,00,37,999.49
2020,08,20,00,38,999.53
2020,08,20,00,39,999.53
2020,08,20,00,40,999.53
2020,08,20,00,41,999.56
2020,08,20,00,42,999.59
2020,08,20,00,43,999.59
2020,08,20,00,44,999.59
2020,08,20,00,45,999.53
2020,08,20,00,46,999.53
2020,08,20,00,47,999.46
2020,08,20,00,48,999.46
2020,08,20,00,49,999.39
2020,08,20,00,50,999.36
2020,08,20,00,51,999.29
2020,08,20,00,52,999.32
2020,08,20,00,53,999.29
2020,08,20,00,54,999.26
2020,08,20,00,55,999.26
2020,08,20,00,56,999.22
2020,08,20,00,57,999.15
2020,08,20,00,58,999.09
2020,08,20,00,59,999.12
2020,08,20,01,00,999.02
2020,08,20,01,01,999.02
2020,08,20,01,02,999.09
2020,08,20,01,03,999.05
2020,08,20,01,04,999.09
2020,08,20,01,05,999.15
2020,08,20,01,06,999.19
2020,08,20,01,07,999.22
2020,08,20,01,08,999.29
2020,08,20,01,09,999.29
2020,08,20,01,10,999.36
2020,08,20,01,11,999.36
2020,08,20,01,12,999.36
2020,08,20,01,13,999.32
2020,08,20,01,14,999.32
2020,08,20,01,15,999.36
2020,08,20,01,16,999.36
2020,08,20,01,17,999.32
2020,08,20,01,18,999.36
2020,08,20,01,19,999.36
2020,08,20,01,20,999.36
2020,08,20,01,21,999.39
2020,08,20,01,22,999.32
2020,08,20,01,23,999.29
2020,08,20,01,24,999.29
2020,08,20,01,25,999.32
2020,08,20,01,26,999.29
2020,08,20,01,27,999.32
2020,08,20,01,28,999.32
2020,08,20,01,29,999.32
2020,08,20,01,30,999.32
2020,08,20,01,31,999.32
2020,08,20,01,32,999.29
2020,08,20,01,33,999.29
2020,08,20,01,34,999.29
2020,08,20,01,35,999.26
2020,08,20,01,36,999.26
2020,08,20,01,37,999.22
2020,08,20,01,38,999.22
2020,08,20,01,39,999.22
2020,08,20,01,40,999.19
2020,08,20,01,41,999.26
2020,08,20,01,42,999.26
2020,08,20,01,43,999.26
2020,08,20,01,44,999.29
2020,08,20,01,45,999.29
2020,08,20,01,46,999.29
2020,08,20,01,47,999.32
2020,08,20,01,48,999.32
2020,08,20,01,49,999.32
2020,08,20,01,50,999.36
2020,08,20,01,51,999.39
2020,08,20,01,52,999.36
2020,08,20,01,53,999.39
2020,08,20,01,54,999.43
2020,08,20,01,55,999.43
2020,08,20,01,56,999.43
2020,08,20,01,57,999.43
2020,08,20,01,58,999.46
2020,08,20,01,59,999.46
2020,08,20,02,00,999.46
2020,08,20,02,01,999.49
2020,08,20,02,02,999.49
2020,08,20,02,03,999.53
2020,08,20,02,04,999.53
2020,08,20,02,05,999.53
2020,08,20,02,06,999.53
2020,08,20,02,07,999.56
2020,08,20,02,08,999.56
2020,08,20,02,09,999.53
2020,08,20,02,10,999.49
2020,08,20,02,11,999.53
2020,08,20,02,12,999.56
2020,08,20,02,13,999.49
2020,08,20,02,14,999.53
2020,08,20,02,15,999.53
2020,08,20,02,16,999.53
2020,08,20,02,17,999.53
2020,08,20,02,18,999.53
2020,08,20,02,19,999.49
2020,08,20,02,20,999.49
2020,08,20,02,21,999.49
2020,08,20,02,22,999.53
2020,08,20,02,23,999.53
2020,08,20,02,24,999.56
2020,08,20,02,25,999.56
2020,08,20,02,26,999.53
2020,08,20,02,27,999.53
2020,08,20,02,28,999.49
2020,08,20,02,29,999.46
2020,08,20,02,30,999.46
2020,08,20,02,31,999.43
2020,08,20,02,32,999.49
2020,08,20,02,33,999.46
2020,08,20,02,34,999.46
2020,08,20,02,35,999.46
2020,08,20,02,36,999.53
2020,08,20,02,37,999.53
2020,08,20,02,38,999.53
2020,08,20,02,39,999.49
2020,08,20,02,40,999.53
2020,08,20,02,41,999.56
2020,08,20,02,42,999.56
2020,08,20,02,43,999.46
2020,08,20,02,44,999.49
2020,08,20,02,45,999.49
2020,08,20,02,46,999.53
2020,08,20,02,47,999.53
2020,08,20,02,48,999.49
2020,08,20,02,49,999.46
2020,08,20,02,50,999.46
2020,08,20,02,51,999.49
2020,08,20,02,52,999.46
2020,08,20,02,53,999.46
2020,08,20,02,54,999.46
2020,08,20,02,55,999.46
2020,08,20,02,56,999.43
2020,08,20,02,57,999.43
2020,08,20,02,58,999.43
2020,08,20,02,59,999.43
2020,08,20,03,00,999.43
2020,08,20,03,01,999.46
2020,08,20,03,02,999.39
2020,08,20,03,03,999.43
2020,08,20,03,04,999.39
2020,08,20,03,05,999.43
2020,08,20,03,06,999.43
2020,08,20,03,07,999.43
2020,08,20,03,08,999.43
2020,08,20,03,09,999.43
2020,08,20,03,10,999.43
2020,08,20,03,11,999.43
2020,08,20,03,12,999.43
2020,08,20,03,13,999.43
2020,08,20,03,14,999.43
2020,08,20,03,15,999.39
2020,08,20,03,16,999.46
2020,08,20,03,17,999.46
2020,08,20,03,18,999.43
2020,08,20,03,19,999.43
2020,08,20,03,20,999.36
2020,08,20,03,21,999.36
2020,08,20,03,22,999.32
2020,08,20,03,23,999.36
2020,08,20,03,24,999.32
2020,08,20,03,25,999.32
2020,08,20,03,26,999.32
2020,08,20,03,27,999.32
2020,08,20,03,28,999.32
2020,08,20,03,29,999.29
2020,08,20,03,30,999.29
2020,08,20,03,31,999.29
2020,08,20,03,32,999.29
2020,08,20,03,33,999.26
2020,08,20,03,34,999.26
2020,08,20,03,35,999.26
2020,08,20,03,36,999.22
2020,08,20,03,37,999.22
2020,08,20,03,38,999.22
2020,08,20,03,39,999.22
2020,08,20,03,40,999.32
2020,08,20,03,41,999.29
2020,08,20,03,42,999.29
2020,08,20,03,43,999.36
2020,08,20,03,44,999.36
2020,08,20,03,45,999.39
2020,08,20,03,46,999.36
2020,08,20,03,47,999.32
2020,08,20,03,48,999.36
2020,08,20,03,49,999.36
2020,08,20,03,50,999.39
2020,08,20,03,51,999.36
2020,08,20,03,52,999.36
2020,08,20,03,53,999.36
2020,08,20,03,54,999.36
2020,08,20,03,55,999.32
2020,08,20,03,56,999.32
2020,08,20,03,57,999.36
2020,08,20,03,58,999.36
2020,08,20,03,59,999.36
2020,08,20,04,00,999.32
2020,08,20,04,01,999.43
2020,08,20,04,02,999.36
2020,08,20,04,03,999.39
2020,08,20,04,04,999.36
2020,08,20,04,05,999.39
2020,08,20,04,06,999.32
2020,08,20,04,07,999.36
2020,08,20,04,08,999.36
2020,08,20,04,09,999.39
2020,08,20,04,10,999.36
2020,08,20,04,11,999.36
2020,08,20,04,12,999.39
2020,08,20,04,13,999.36
2020,08,20,04,14,999.39
2020,08,20,04,15,999.43
2020,08,20,04,16,999.46
2020,08,20,04,17,999.46
2020,08,20,04,18,999.46
2020,08,20,04,19,999.49
2020,08,20,04,20,999.43
2020,08,20,04,21,999.46
2020,08,20,04,22,999.43
2020,08,20,04,23,999.43
2020,08,20,04,24,999.39
2020,08,20,04,25,999.43
2020,08,20,04,26,999.43
2020,08,20,04,27,999.39
2020,08,20,04,28,999.46
2020,08,20,04,29,999.43
2020,08,20,04,30,999.43
2020,08,20,04,31,999.46
2020,08,20,04,32,999.46
2020,08,20,04,33,999.43
2020,08,20,04,34,999.49
2020,08,20,04,35,999.49
2020,08,20,04,36,999.46
2020,08,20,04,37,999.46
2020,08,20,04,38,999.49
2020,08,20,04,39,999.49
2020,08,20,04,40,999.46
2020,08,20,04,41,999.43
2020,08,20,04,42,999.49
2020,08,20,04,43,999.49
2020,08,20,04,44,999.46
2020,08,20,04,45,999.49
2020,08,20,04,46,999.49
2020,08,20,04,47,999.49
2020,08,20,04,48,999.49
2020,08,20,04,49,999.56
2020,08,20,04,50,999.59
2020,08,20,04,51,999.59
2020,08,20,04,52,999.63
2020,08,20,04,53,999.63
2020,08,20,04,54,999.63
2020,08,20,04,55,999.63
2020,08,20,04,56,999.63
2020,08,20,04,57,999.59
2020,08,20,04,58,999.59
2020,08,20,04,59,999.59
2020,08,20,05,00,999.63
2020,08,20,05,01,999.63
2020,08,20,05,02,999.63
2020,08,20,05,03,999.63
2020,08,20,05,04,999.63
2020,08,20,05,05,999.63
2020,08,20,05,06,999.63
2020,08,20,05,07,999.63
2020,08,20,05,08,999.70
2020,08,20,05,09,999.66
2020,08,20,05,10,999.73
2020,08,20,05,11,999.70
2020,08,20,05,12,999.76
2020,08,20,05,13,999.73
2020,08,20,05,14,999.73
2020,08,20,05,15,999.70
2020,08,20,05,16,999.70
2020,08,20,05,17,999.76
2020,08,20,05,18,999.80
2020,08,20,05,19,999.76
2020,08,20,05,20,999.76
2020,08,20,05,21,999.80
2020,08,20,05,22,999.80
2020,08,20,05,23,999.80
2020,08,20,05,24,999.87
2020,08,20,05,25,999.87
2020,08,20,05,26,999.87
2020,08,20,05,27,999.90
2020,08,20,05,28,999.87
2020,08,20,05,29,999.90
2020,08,20,05,30,999.90
2020,08,20,05,31,999.90
2020,08,20,05,32,999.90
2020,08,20,05,33,999.87
2020,08,20,05,34,999.83
2020,08,20,05,35,999.87
2020,08,20,05,36,999.90
2020,08,20,05,37,999.90
2020,08,20,05,38,999.90
2020,08,20,05,39,999.87
2020,08,20,05,40,999.90
2020,08,20,05,41,999.93
2020,08,20,05,42,999.93
2020,08,20,05,43,999.97
2020,08,20,05,44,999.97
2020,08,20,05,45,999.93
2020,08,20,05,46,1000.00
2020,08,20,05,47,999.97
2020,08,20,05,48,999.97
2020,08,20,05,49,999.93
2020,08,20,05,50,999.97
2020,08,20,05,51,999.93
2020,08,20,05,52,999.93
2020,08,20,05,53,999.97
2020,08,20,05,54,999.93
2020,08,20,05,55,999.93
2020,08,20,05,56,999.93
2020,08,20,05,57,999.93
2020,08,20,05,58,999.97
2020,08,20,05,59,999.93
2020,08,20,06,00,999.93
2020,08,20,06,01,999.93
2020,08,20,06,02,999.97
2020,08,20,06,03,999.97
2020,08,20,06,04,999.93
2020,08,20,06,05,999.90
2020,08,20,06,06,999.93
2020,08,20,06,07,999.93
2020,08,20,06,08,1000.00
2020,08,20,06,09,999.97
2020,08,20,06,10,999.97
2020,08,20,06,11,999.93
2020,08,20,06,12,999.87
2020,08,20,06,13,999.90
2020,08,20,06,14,999.87
2020,08,20,06,15,999.80
2020,08,20,06,16,999.87
2020,08,20,06,17,999.87
2020,08,20,06,18,999.83
2020,08,20,06,19,999.83
2020,08,20,06,20,999.80
2020,08,20,06,21,999.76
2020,08,20,06,22,999.73
2020,08,20,06,23,999.76
2020,08,20,06,24,999.76
2020,08,20,06,25,999.76
2020,08,20,06,26,999.73
2020,08,20,06,27,999.73
2020,08,20,06,28,999.73
2020,08,20,06,29,999.73
2020,08,20,06,30,999.66
2020,08,20,06,31,999.70
2020,08,20,06,32,999.66
2020,08,20,06,33,999.66
2020,08,20,06,34,999.59
2020,08,20,06,35,999.63
2020,08,20,06,36,999.63
2020,08,20,06,37,999.63
2020,08,20,06,38,999.63
2020,08,20,06,39,999.70
2020,08,20,06,40,999.66
2020,08,20,06,41,999.66
2020,08,20,06,42,999.66
2020,08,20,06,43,999.66
2020,08,20,06,44,999.63
2020,08,20,06,45,999.63
2020,08,20,06,46,999.56
2020,08,20,06,47,999.56
2020,08,20,06,48,999.56
2020,08,20,06,49,999.59
2020,08,20,06,50,999.63
2020,08,20,06,51,999.70
2020,08,20,06,52,999.70
2020,08,20,06,53,999.70
2020,08,20,06,54,999.63
2020,08,20,06,55,999.63
2020,08,20,06,56,999.66
2020,08,20,06,57,999.59
2020,08,20,06,58,999.59
2020,08,20,06,59,999.59
2020,08,20,07,00,999.63
2020,08,20,07,01,999.63
2020,08,20,07,02,999.66
2020,08,20,07,03,999.66
2020,08,20,07,04,999.70
2020,08,20,07,05,999.66
2020,08,20,07,06,999.70
2020,08,20,07,07,999.70
2020,08,20,07,08,999.70
2020,08,20,07,09,999.70
2020,08,20,07,10,999.63
2020,08,20,07,11,999.66
2020,08,20,07,12,999.66
2020,08,20,07,13,999.63
2020,08,20,07,14,999.66
2020,08,20,07,15,999.66
2020,08,20,07,16,999.70
2020,08,20,07,17,999.70
2020,08,20,07,18,999.70
2020,08,20,07,19,999.73
2020,08,20,07,20,999.80
2020,08,20,07,21,999.83
2020,08,20,07,22,999.83
2020,08,20,07,23,999.83
2020,08,20,07,24,999.87
2020,08,20,07,25,999.87
2020,08,20,07,26,999.83
2020,08,20,07,27,999.90
2020,08,20,07,28,999.87
2020,08,20,07,29,999.80
2020,08,20,07,30,999.83
2020,08,20,07,31,999.73
2020,08,20,07,32,999.80
2020,08,20,07,33,999.80
2020,08,20,07,34,999.80
2020,08,20,07,35,999.80
2020,08,20,07,36,999.87
2020,08,20,07,37,999.87
2020,08,20,07,38,999.87
2020,08,20,07,39,999.80
2020,08,20,07,40,999.76
2020,08,20,07,41,999.76
2020,08,20,07,42,999.73
2020,08,20,07,43,999.76
2020,08,20,07,44,999.76
2020,08,20,07,45,999.76
2020,08,20,07,46,999.76
2020,08,20,07,47,999.73
2020,08,20,07,48,999.76
2020,08,20,07,49,999.70
2020,08,20,07,50,999.73
2020,08,20,07,51,999.73
2020,08,20,07,52,999.73
2020,08,20,07,53,999.70
2020,08,20,07,54,999.76
2020,08,20,07,55,999.73
2020,08,20,07,56,999.70
2020,08,20,07,57,999.63
2020,08,20,07,58,999.70
2020,08,20,07,59,999.70
2020,08,20,08,00,999.70
2020,08,20,08,01,999.73
2020,08,20,08,02,999.73
2020,08,20,08,03,999.70
2020,08,20,08,04,999.70
2020,08,20,08,05,999.66
2020,08,20,08,06,999.73
2020,08,20,08,07,999.73
2020,08,20,08,08,999.70
2020,08,20,08,09,999.70
2020,08,20,08,10,999.70
2020,08,20,08,11,999.63
2020,08,20,08,12,999.63
2020,08,20,08,13,999.59
2020,08,20,08,14,999.63
2020,08,20,08,15,999.66
2020,08,20,08,16,999.66
2020,08,20,08,17,999.66
2020,08,20,08,18,999.70
2020,08,20,08,19,999.63
2020,08,20,08,20,999.70
2020,08,20,08,21,999.70
2020,08,20,08,22,999.63
2020,08,20,08,23,999.63
2020,08,20,08,24,999.59
2020,08,20,08,25,999.63
2020,08,20,08,26,999.63
2020,08,20,08,27,999.66
2020,08,20,08,28,999.63
2020,08,20,08,29,999.63
2020,08,20,08,30,999.59
2020,08,20,08,31,999.56
2020,08,20,08,32,999.53
2020,08,20,08,33,999.53
2020,08,20,08,34,999.53
2020,08,20,08,35,999.46
2020,08,20,08,36,999.46
2020,08,20,08,37,999.43
2020,08,20,08,38,999.39
2020,08,20,08,39,999.36
2020,08,20,08,40,999.32
2020,08,20,08,41,999.29
2020,08,20,08,42,999.26
2020,08,20,08,43,999.26
2020,08,20,08,44,999.26
2020,08,20,08,45,999.26
2020,08,20,08,46,999.26
2020,08,20,08,47,999.26
2020,08,20,08,48,999.29
2020,08,20,08,49,999.32
2020,08,20,08,50,999.32
2020,08,20,08,51,999.29
2020,08,20,08,52,999.32
2020,08,20,08,53,999.36
2020,08,20,08,54,999.39
2020,08,20,08,55,999.43
2020,08,20,08,56,999.46
2020,08,20,08,57,999.43
2020,08,20,08,58,999.39
2020,08,20,08,59,999.39
2020,08,20,09,00,999.36
2020,08,20,09,01,999.32
2020,08,20,09,02,999.32
2020,08,20,09,03,999.36
2020,08,20,09,04,999.36
2020,08,20,09,05,999.39
2020,08,20,09,06,999.29
2020,08,20,09,07,999.32
2020,08,20,09,08,999.29
2020,08,20,09,09,999.29
2020,08,20,09,10,999.29
2020,08,20,09,11,999.29
2020,08,20,09,12,999.29
2020,08,20,09,13,999.32
2020,08,20,09,14,999.32
2020,08,20,09,15,999.26
2020,08,20,09,16,999.22
2020,08,20,09,17,999.19
2020,08,20,09,18,999.19
2020,08,20,09,19,999.22
2020,08,20,09,20,999.22
2020,08,20,09,21,999.26
2020,08,20,09,22,999.32
2020,08,20,09,23,999.32
2020,08,20,09,24,999.39
2020,08,20,09,25,999.32
2020,08,20,09,26,999.39
2020,08,20,09,27,999.39
2020,08,20,09,28,999.39
2020,08,20,09,29,999.36
2020,08,20,09,30,999.36
2020,08,20,09,31,999.32
2020,08,20,09,32,999.39
2020,08,20,09,33,999.36
2020,08,20,09,34,999.43
2020,08,20,09,35,999.46
2020,08,20,09,36,999.43
2020,08,20,09,37,999.43
2020,08,20,09,38,999.39
2020,08,20,09,39,999.43
2020,08,20,09,40,999.39
2020,08,20,09,41,999.43
2020,08,20,09,42,999.39
2020,08,20,09,43,999.43
2020,08,20,09,44,999.46
2020,08,20,09,45,999.43
2020,08,20,09,46,999.46
2020,08,20,09,47,999.46
2020,08,20,09,48,999.46
2020,08,20,09,49,999.46
2020,08,20,09,50,999.46
2020,08,20,09,51,999.49
2020,08,20,09,52,999.46
2020,08,20,09,53,999.46
2020,08,20,09,54,999.39
2020,08,20,09,55,999.39
2020,08,20,09,56,999.39
2020,08,20,09,57,999.39
2020,08,20,09,58,999.43
2020,08,20,09,59,999.43
2020,08,20,10,00,999.46
2020,08,20,10,01,999.43
2020,08,20,10,02,999.46
2020,08,20,10,03,999.49
2020,08,20,10,04,999.53
2020,08,20,10,05,999.53
2020,08,20,10,06,999.59
2020,08,20,10,07,999.56
2020,08,20,10,08,999.59
2020,08,20,10,09,999.59
2020,08,20,10,10,999.59
2020,08,20,10,11,999.59
2020,08,20,10,12,999.59
2020,08,20,10,13,999.53
2020,08,20,10,14,999.49
2020,08,20,10,15,999.53
2020,08,20,10,16,999.49
2020,08,20,10,17,999.49
2020,08,20,10,18,999.49
2020,08,20,10,19,999.49
2020,08,20,10,20,999.53
2020,08,20,10,21,999.53
2020,08,20,10,22,999.53
2020,08,20,10,23,999.59
2020,08,20,10,24,999.59
2020,08,20,10,25,999.63
2020,08,20,10,26,999.63
2020,08,20,10,27,999.63
2020,08,20,10,28,999.63
2020,08,20,10,29,999.63
2020,08,20,10,30,999.66
2020,08,20,10,31,999.59
2020,08,20,10,32,999.53
2020,08,20,10,33,999.49
2020,08,20,10,34,999.49
2020,08,20,10,35,999.49
2020,08,20,10,36,999.49
2020,08,20,10,37,999.46
2020,08,20,10,38,999.46
2020,08,20,10,39,999.46
2020,08,20,10,40,999.43
2020,08,20,10,41,999.43
2020,08,20,10,42,999.43
2020,08,20,10,43,999.43
2020,08,20,10,44,999.46
2020,08,20,10,45,999.39
2020,08,20,10,46,999.46
2020,08,20,10,47,999.43
2020,08,20,10,48,999.43
2020,08,20,10,49,999.39
2020,08,20,10,50,999.43
2020,08,20,10,51,999.43
2020,08,20,10,52,999.43
2020,08,20,10,53,999.39
2020,08,20,10,54,999.39
2020,08,20,10,55,999.39
2020,08,20,10,56,999.39
2020,08,20,10,57,999.32
2020,08,20,10,58,999.32
2020,08,20,10,59,999.32
2020,08,20,11,00,999.29
2020,08,20,11,01,999.29
2020,08,20,11,02,999.29
2020,08,20,11,03,999.29
2020,08,20,11,04,999.29
2020,08,20,11,05,999.32
2020,08,20,11,06,999.36
2020,08,20,11,07,999.29
2020,08,20,11,08,999.32
2020,08,20,11,09,999.39
2020,08,20,11,10,999.36
2020,08,20,11,11,999.39
2020,08,20,11,12,999.49
2020,08,20,11,13,999.46
2020,08,20,11,14,999.53
2020,08,20,11,15,999.49
2020,08,20,11,16,999.46
2020,08,20,11,17,999.46
2020,08,20,11,18,999.49
2020,08,20,11,19,999.46
2020,08,20,11,20,999.46
2020,08,20,11,21,999.43
2020,08,20,11,22,999.43
2020,08,20,11,23,999.46
2020,08,20,11,24,999.46
2020,08,20,11,25,999.43
2020,08,20,11,26,999.43
2020,08,20,11,27,999.46
2020,08,20,11,28,999.43
2020,08,20,11,29,999.46
2020,08,20,11,30,999.46
2020,08,20,11,31,999.46
2020,08,20,11,32,999.49
2020,08,20,11,33,999.43
2020,08,20,11,34,999.39
2020,08,20,11,35,999.32
2020,08,20,11,36,999.32
2020,08,20,11,37,999.29
2020,08,20,11,38,999.29
2020,08,20,11,39,999.26
2020,08,20,11,40,999.22
2020,08,20,11,41,999.22
2020,08,20,11,42,999.19
2020,08,20,11,43,999.19
2020,08,20,11,44,999.15
2020,08,20,11,45,999.12
2020,08,20,11,46,999.09
2020,08,20,11,47,999.05
2020,08,20,11,48,999.12
2020,08,20,11,49,999.05
2020,08,20,11,50,998.99
2020,08,20,11,51,998.99
2020,08,20,11,52,998.95
2020,08,20,11,53,998.92
2020,08,20,11,54,998.92
2020,08,20,11,55,998.92
2020,08,20,11,56,998.92
2020,08,20,11,57,998.92
2020,08,20,11,58,998.88
2020,08,20,11,59,998.88
2020,08,20,12,00,998.85
2020,08,20,12,01,998.88
2020,08,20,12,02,998.88
2020,08,20,12,03,998.88
2020,08,20,12,04,998.92
2020,08,20,12,05,998.88
2020,08,20,12,06,998.85
2020,08,20,12,07,998.85
2020,08,20,12,08,998.85
2020,08,20,12,09,998.85
2020,08,20,12,10,998.85
2020,08,20,12,11,998.88
2020,08,20,12,12,998.88
2020,08,20,12,13,998.85
2020,08,20,12,14,998.82
2020,08,20,12,15,998.75
2020,08,20,12,16,998.71
2020,08,20,12,17,998.71
2020,08,20,12,18,998.71
2020,08,20,12,19,998.68
2020,08,20,12,20,998.65
2020,08,20,12,21,998.65
2020,08,20,12,22,998.65
2020,08,20,12,23,998.65
2020,08,20,12,24,998.61
2020,08,20,12,25,998.65
2020,08,20,12,26,998.68
2020,08,20,12,27,998.68
2020,08,20,12,28,998.68
2020,08,20,12,29,998.71
2020,08,20,12,30,998.68
2020,08,20,12,31,998.71
2020,08,20,12,32,998.71
2020,08,20,12,33,998.68
2020,08,20,12,34,998.71
2020,08,20,12,35,998.71
2020,08,20,12,36,998.75
2020,08,20,12,37,998.78
2020,08,20,12,38,998.78
2020,08,20,12,39,998.85
2020,08,20,12,40,998.78
2020,08,20,12,41,998.82
2020,08,20,12,42,998.82
2020,08,20,12,43,998.82
2020,08,20,12,44,998.82
2020,08,20,12,45,998.78
2020,08,20,12,46,998.78
2020,08,20,12,47,998.78
2020,08,20,12,48,998.71
2020,08,20,12,49,998.78
2020,08,20,12,50,998.75
2020,08,20,12,51,998.75
2020,08,20,12,52,998.71
2020,08,20,12,53,998.71
2020,08,20,12,54,998.71
2020,08,20,12,55,998.75
2020,08,20,12,56,998.71
2020,08,20,12,57,998.78
2020,08,20,12,58,998.75
2020,08,20,12,59,998.71
2020,08,20,13,00,998.68
2020,08,20,13,01,998.61
2020,08,20,13,02,998.58
2020,08,20,13,03,998.58
2020,08,20,13,04,998.58
2020,08,20,13,05,998.61
2020,08,20,13,06,998.61
2020,08,20,13,07,998.54
2020,08,20,13,08,998.58
2020,08,20,13,09,998.54
2020,08,20,13,10,998.54
2020,08,20,13,11,998.51
2020,08,20,13,12,998.44
2020,08,20,13,13,998.48
2020,08,20,13,14,998.44
2020,08,20,13,15,998.38
2020,08,20,13,16,998.31
2020,08,20,13,17,998.27
2020,08,20,13,18,998.24
2020,08,20,13,19,998.24
2020,08,20,13,20,998.17
2020,08,20,13,21,998.17
2020,08,20,13,22,998.17
2020,08,20,13,23,998.17
2020,08,20,13,24,998.14
2020,08,20,13,25,998.14
2020,08,20,13,26,998.14
2020,08,20,13,27,998.07
2020,08,20,13,28,998.04
2020,08,20,13,29,998.00
2020,08,20,13,30,997.97
2020,08,20,13,31,998.00
2020,08,20,13,32,997.90
2020,08,20,13,33,997.90
2020,08,20,13,34,997.90
2020,08,20,13,35,997.94
2020,08,20,13,36,997.87
2020,08,20,13,37,997.83
2020,08,20,13,38,997.83
2020,08,20,13,39,997.87
2020,08,20,13,40,997.87
2020,08,20,13,41,997.83
2020,08,20,13,42,997.83
2020,08,20,13,43,997.80
2020,08,20,13,44,997.83
2020,08,20,13,45,997.87
2020,08,20,13,46,997.87
2020,08,20,13,47,997.87
2020,08,20,13,48,997.87
2020,08,20,13,49,997.94
2020,08,20,13,50,997.94
2020,08,20,13,51,997.94
2020,08,20,13,52,997.90
2020,08,20,13,53,997.90
2020,08,20,13,54,997.90
2020,08,20,13,55,997.83
2020,08,20,13,56,997.83
2020,08,20,13,57,997.77
2020,08,20,13,58,997.80
2020,08,20,13,59,997.77
2020,08,20,14,00,997.83
2020,08,20,14,01,997.90
2020,08,20,14,02,997.87
2020,08,20,14,03,997.87
2020,08,20,14,04,997.87
2020,08,20,14,05,997.87
2020,08,20,14,06,997.87
2020,08,20,14,07,997.90
2020,08,20,14,08,997.87
2020,08,20,14,09,997.87
2020,08,20,14,10,997.87
2020,08,20,14,11,997.87
2020,08,20,14,12,997.83
2020,08,20,14,13,997.90
2020,08,20,14,14,997.87
2020,08,20,14,15,997.87
2020,08,20,14,16,997.90
2020,08,20,14,17,997.80
2020,08,20,14,18,997.83
2020,08,20,14,19,997.77
2020,08,20,14,20,997.77
2020,08,20,14,21,997.77
2020,08,20,14,22,997.73
2020,08,20,14,23,997.80
2020,08,20,14,24,997.83
2020,08,20,14,25,997.87
2020,08,20,14,26,997.90
2020,08,20,14,27,997.90
2020,08,20,14,28,997.94
2020,08,20,14,29,997.90
2020,08,20,14,30,997.90
2020,08,20,14,31,997.87
2020,08,20,14,32,997.87
2020,08,20,14,33,997.80
2020,08,20,14,34,997.77
2020,08,20,14,35,997.73
2020,08,20,14,36,997.70
2020,08,20,14,37,997.66
2020,08,20,14,38,997.60
2020,08,20,14,39,997.60
2020,08,20,14,40,997.63
2020,08,20,14,41,997.56
2020,08,20,14,42,997.56
2020,08,20,14,43,997.56
2020,08,20,14,44,997.60
2020,08,20,14,45,997.60
2020,08,20,14,46,997.60
2020,08,20,14,47,997.66
2020,08,20,14,48,997.66
2020,08,20,14,49,997.66
2020,08,20,14,50,997.63
2020,08,20,14,51,997.60
2020,08,20,14,52,997.53
2020,08,20,14,53,997.46
2020,08,20,14,54,997.43
2020,08,20,14,55,997.36
2020,08,20,14,56,997.36
2020,08,20,14,57,997.36
2020,08,20,14,58,997.39
2020,08,20,14,59,997.36
2020,08,20,15,00,997.39
2020,08,20,15,01,997.43
2020,08,20,15,02,997.43
2020,08,20,15,03,997.43
2020,08,20,15,04,997.50
2020,08,20,15,05,997.50
2020,08,20,15,06,997.53
2020,08,20,15,07,997.53
2020,08,20,15,08,997.50
2020,08,20,15,09,997.43
2020,08,20,15,10,997.39
2020,08,20,15,11,997.43
2020,08,20,15,12,997.43
2020,08,20,15,13,997.43
2020,08,20,15,14,997.39
2020,08,20,15,15,997.43
2020,08,20,15,16,997.39
2020,08,20,15,17,997.33
2020,08,20,15,18,997.33
2020,08,20,15,19,997.36
2020,08,20,15,20,997.36
2020,08,20,15,21,997.36
2020,08,20,15,22,997.33
2020,08,20,15,23,997.29
2020,08,20,15,24,997.36
2020,08,20,15,25,997.33
2020,08,20,15,26,997.36
2020,08,20,15,27,997.36
2020,08,20,15,28,997.36
2020,08,20,15,29,997.36
2020,08,20,15,30,997.36
2020,08,20,15,31,997.36
2020,08,20,15,32,997.39
2020,08,20,15,33,997.39
2020,08,20,15,34,997.36
2020,08,20,15,35,997.36
2020,08,20,15,36,997.33
2020,08,20,15,37,997.36
2020,08,20,15,38,997.36
2020,08,20,15,39,997.36
2020,08,20,15,40,997.36
2020,08,20,15,41,997.36
2020,08,20,15,42,997.36
2020,08,20,15,43,997.33
2020,08,20,15,44,997.29
2020,08,20,15,45,997.29
2020,08,20,15,46,997.26
2020,08,20,15,47,997.26
2020,08,20,15,48,997.26
2020,08,20,15,49,997.26
2020,08,20,15,50,997.22
2020,08,20,15,51,997.26
2020,08,20,15,52,997.26
2020,08,20,15,53,997.26
2020,08,20,15,54,997.22
2020,08,20,15,55,997.26
2020,08,20,15,56,997.22
2020,08,20,15,57,997.19
2020,08,20,15,58,997.16
2020,08,20,15,59,997.26
2020,08,20,16,00,997.22
2020,08,20,16,01,997.26
2020,08,20,16,02,997.22
2020,08,20,16,03,997.22
2020,08,20,16,04,997.19
2020,08,20,16,05,997.19
2020,08,20,16,06,997.16
2020,08,20,16,07,997.16
2020,08,20,16,08,997.19
2020,08,20,16,09,997.16
2020,08,20,16,10,997.12
2020,08,20,16,11,997.12
2020,08,20,16,12,997.12
2020,08,20,16,13,997.09
2020,08,20,16,14,997.12
2020,08,20,16,15,997.05
2020,08,20,16,16,997.09
2020,08,20,16,17,997.16
2020,08,20,16,18,997.12
2020,08,20,16,19,997.09
2020,08,20,16,20,997.09
2020,08,20,16,21,997.16
2020,08,20,16,22,997.12
2020,08,20,16,23,997.12
2020,08,20,16,24,997.09
2020,08,20,16,25,997.12
2020,08,20,16,26,997.09
2020,08,20,16,27,997.09
2020,08,20,16,28,997.09
2020,08,20,16,29,997.09
2020,08,20,16,30,997.09
2020,08,20,16,31,997.12
2020,08,20,16,32,997.09
2020,08,20,16,33,997.09
2020,08,20,16,34,997.09
2020,08,20,16,35,997.05
2020,08,20,16,36,997.09